Regional Weather Roundup
Issued by NWS

Home | Current Version | Previous Version | Graphics & Text | Print | Product List | Glossary On
Versions: 1 2 3 4 5 6 7 8 9 10 11 12 13 14 15 16 17 18 19 20 21 22 23 24 25 26 27 28 29 30 31 32 33 34 35 36 37 38 39 40 41 42 43 44 45 46 47 48 49 50
304
ASUS43 KOAX 241302
RWRNE

WEATHER ROUNDUP FOR NEBRASKA
NATIONAL WEATHER SERVICE OMAHA NE
800 AM CDT SUN SEP 24 2017

NOTES: SATELLITE DATA IS BEING USED TO AUGMENT CLOUD COVER ABOVE
       12000 FEET.
       "FAIR" INDICATES FEW OR NO CLOUDS BELOW 12,000 FEET WITH NO
       SIGNIFICANT WEATHER AND/OR OBSTRUCTIONS TO VISIBILITY.


NEZ001>004-019>022-054>056-241400-
NEBRASKA PANHANDLE

CITY           SKY/WX    TMP DP  RH WIND       PRES   REMARKS
SCOTTSBLUFF    CLOUDY    46  42  86 CALM      30.01R
ALLIANCE       CLOUDY    44  43  96 N10       29.98R
CHADRON        CLOUDY    45  43  93 N5        30.00R
GORDON         CLOUDY    45  44  95 N12       29.98R
KIMBALL        CLOUDY    43  43 100 N10       30.00S FOG
SIDNEY         CLOUDY    44  42  93 N12       29.98R
$$

NEZ057>060-069>072-079>082-241400-
SOUTHWEST NEBRASKA

CITY           SKY/WX    TMP DP  RH WIND       PRES   REMARKS
NORTH PLATTE   LGT RAIN  50  49  96 VRB6G21   29.91R
IMPERIAL       CLOUDY    49  48  97 NW14      29.93S
LEXINGTON      LGT RAIN  61  60  94 NW5       29.87R
MCCOOK         LGT RAIN  53  52  96 W8        29.91R
OGALLALA       CLOUDY    51  48  90 N12       29.94R
$$

NEZ005>010-023>029-035>040-094-241400-
NORTH CENTRAL NEBRASKA

CITY           SKY/WX    TMP DP  RH WIND       PRES   REMARKS
VALENTINE      LGT RAIN  51  50  96 W5        29.94R
AINSWORTH      RAIN      50  50 100 NW7       29.92S
BROKEN BOW     RAIN      53  53 100 N10       29.88S
O`NEILL        RAIN      54  54 100 NW9       29.89S
ORD            LGT RAIN  59  56  89 NW6       29.86R
THEDFORD       RAIN      49  49  97 N6        29.91F
$$

NEZ041-046>049-061>064-073>077-083>087-241400-
SOUTH CENTRAL NEBRASKA

CITY           SKY/WX    TMP DP  RH WIND       PRES   REMARKS
GRAND ISLAND   PTCLDY    67  64  90 S10       29.87R
AURORA         MOCLDY    68  64  86 S9        29.88R
HASTINGS       PTCLDY    70  62  76 S13       29.88R
HEBRON         PTCLDY    71  63  77 S9        29.90R
HOLDREGE       HVY RAIN  65  63  94 S9        29.88R
KEARNEY        CLOUDY    68  64  87 S12       29.87R
YORK           PTCLDY    68  64  88 S10       29.89S
$$

NEZ011>018-030>034-042>045-241400-
NORTHEAST NEBRASKA

CITY           SKY/WX    TMP DP  RH WIND       PRES   REMARKS
NORFOLK        PTCLDY    68  63  84 SE9       29.87S
ALBION         CLOUDY    62  61  96 SE5       29.86S
BLAIR          CLEAR     72  66  81 S9        29.93R
COLUMBUS       PTCLDY    70  63  78 SE10      29.89R
FREMONT        PTCLDY    71  63  77 SE10      29.91S
TEKAMAH        CLEAR     68  65  90 SE7       29.91R
WAYNE          PTCLDY    68  65  91 S10       29.89R
$$

NEZ050>053-065>068-078-088>093-241400-
SOUTHEAST NEBRASKA

CITY           SKY/WX    TMP DP  RH WIND       PRES   REMARKS
LINCOLN        CLOUDY    71  62  73 S10       29.91R
OMAHA EPPLEY   MOCLDY    71  65  81 SE9       29.92S
BEATRICE       MOCLDY    70  63  78 SE8       29.91S
FALLS CITY     CLEAR     68  65  90 SE5       29.93R
NEBRASKA CITY  CLEAR     68  68 100 S6        29.94S
PLATTSMOUTH    CLEAR     70  67  88 E9        29.93S
$$

NEZ044-045-051>053-067-241400-
OMAHA AREA

CITY           SKY/WX    TMP DP  RH WIND       PRES   REMARKS
OMAHA EPPLEY   MOCLDY    71  65  81 SE9       29.92S
BLAIR          CLEAR     72  66  81 S9        29.93R
FREMONT        PTCLDY    71  63  77 SE10      29.91S
MILLARD        CLEAR     71  67  87 SE6       29.93R
OFFUTT AFB     CLEAR     67  64  91 E6        29.92S
PLATTSMOUTH    CLEAR     70  67  88 E9        29.93S
WAHOO          FAIR      67  65  92 SE7       29.91S
$$




USA.gov is the U.S. government's official web portal to all federal, state and local government web resources and services.